Regional Weather Roundup
Issued by NWS

Home | Current Version | Previous Version | Graphics & Text | Print | Product List | Glossary On
Versions: 1 2 3 4 5 6 7 8 9 10 11 12 13 14 15 16 17 18 19 20 21 22 23 24 25 26 27 28 29 30 31 32 33 34 35 36 37 38 39 40 41 42 43 44 45 46 47 48 49 50
000
ASUS43 KOAX 280602
RWRNE

WEATHER ROUNDUP FOR NEBRASKA
NATIONAL WEATHER SERVICE OMAHA NE
1200 AM CST WED JAN 28 2015

NOTES: SATELLITE DATA IS BEING USED TO AUGMENT CLOUD COVER ABOVE
       12000 FEET.
       "FAIR" INDICATES FEW OR NO CLOUDS BELOW 12,000 FEET WITH NO
       SIGNIFICANT WEATHER AND/OR OBSTRUCTIONS TO VISIBILITY.

  * THESE STATIONS DO NOT REPORT WEATHER SUCH AS RAIN...SNOW OR FOG.

NEZ001>004-019>022-054>056-280700-
NEBRASKA PANHANDLE

CITY           SKY/WX    TMP DP  RH WIND       PRES   REMARKS
SCOTTSBLUFF      N/A    N/A N/A N/A MISG      29.96R
ALLIANCE       CLEAR     29  25  85 CALM      29.94R
6HR MIN TEMP:  28; 6HR MAX TEMP:  54;

CHADRON        CLEAR     36  28  73 SW8       29.90R WCI  30
6HR MIN TEMP:  32; 6HR MAX TEMP:  54;

SIDNEY         PTCLDY    40  28  62 NW10      29.96S WCI  33
6HR MIN TEMP:  36; 6HR MAX TEMP:  53;

$$

NEZ057>060-069>072-079>082-280700-
SOUTHWEST NEBRASKA

CITY           SKY/WX    TMP DP  RH WIND       PRES   REMARKS
NORTH PLATTE   PTCLDY    28  23  81 CALM      29.90S
6HR MIN TEMP:  28; 6HR MAX TEMP:  55;

IMPERIAL       PTCLDY    37  26  64 CALM      29.90F
6HR MIN TEMP:  36; 6HR MAX TEMP:  60;

MCCOOK         CLEAR     38  28  67 W3        29.89F
6HR MIN TEMP:  38; 6HR MAX TEMP:  69;

$$

NEZ005>010-023>029-035>040-094-280700-
NORTH CENTRAL NEBRASKA

CITY           SKY/WX    TMP DP  RH WIND       PRES   REMARKS
VALENTINE      PTCLDY    36  30  79 W8        29.85F WCI  30
6HR MIN TEMP:  35; 6HR MAX TEMP:  57;

BROKEN BOW     CLEAR     31  26  82 CALM      29.89F
6HR MIN TEMP:  30; 6HR MAX TEMP:  57;

ORD            CLEAR     31  27  85 CALM      29.89F
6HR MIN TEMP:  31; 6HR MAX TEMP:  53;

$$

NEZ041-046>049-061>064-073>077-083>087-280700-
SOUTH CENTRAL NEBRASKA

CITY           SKY/WX    TMP DP  RH WIND       PRES   REMARKS
GRAND ISLAND   CLEAR     39  30  70 SE9       29.92S WCI  33
6HR MIN TEMP:  39; 6HR MAX TEMP:  53;

HASTINGS       CLEAR     40  30  67 SE7       29.90F
6HR MIN TEMP:  40; 6HR MAX TEMP:  57;

KEARNEY *      PTCLDY    37  28  70 CALM      29.90F
$$

NEZ011>018-030>034-042>045-280700-
NORTHEAST NEBRASKA

CITY           SKY/WX    TMP DP  RH WIND       PRES   REMARKS
NORFOLK        CLEAR     39  31  72 SE10      29.91F WCI  32
6HR MIN TEMP:  39; 6HR MAX TEMP:  46;

COLUMBUS *     CLEAR     41  28  60 SE12      29.95S
TEKAMAH        CLEAR     35  29  78 SE10      29.98F WCI  27
6HR MIN TEMP:  33; 6HR MAX TEMP:  43;

$$

NEZ050>053-065>068-078-088>093-280700-
SOUTHEAST NEBRASKA

CITY           SKY/WX    TMP DP  RH WIND       PRES   REMARKS
LINCOLN        CLEAR     39  29  67 SE9       29.97F WCI  33
6HR MIN TEMP:  39; 6HR MAX TEMP:  51;

OMAHA EPPLEY   CLEAR     39  30  70 SE15      29.99F WCI  31
6HR MIN TEMP:  39; 6HR MAX TEMP:  46;

FALLS CITY     CLEAR     38  30  73 SE8       30.00F WCI  32
6HR MIN TEMP:  37; 6HR MAX TEMP:  47;

$$

NEZ044-045-051>053-067-280700-
OMAHA AREA

CITY           SKY/WX    TMP DP  RH WIND       PRES   REMARKS
OMAHA EPPLEY   CLEAR     39  30  70 SE15      29.99F WCI  31
6HR MIN TEMP:  39; 6HR MAX TEMP:  46;

OFFUTT AFB     CLEAR     37  30  76 E10       29.99S WCI  30
$$


USA.gov is the U.S. government's official web portal to all federal, state and local government web resources and services.